[[{"header":{"parameterUnit":"m.s-1","parameterCategory":1,"la1":30.2991,"la2":30.254,"lo1":-89.0895,"lo2":-89.0444,"dy":0.0017,"dx":0.0017,"nx":28,"ny":28,"refTime":"2024-03-06T03:00:00:Z","depth":0,"parameterNumber":2,"parameterNumberName":"U-component_of_WINDS"},"data":[0,0,0,0,0,0,0,0,0,0,0,0,0,0,0,0,0,0,0,0,0,0,0,0,0,0,0,0,0,0,0,0,0,0,0,0,0,0,0,0,0,0,0,0,0,0,0,0,0,0,0,0,0,0,0,0,0,0,-2.9898,-2.9899,0,-3.0026,-3.0027,-3.0029,-3.0045,-3.0043,-3.0042,-3.0041,-3.0174,-3.0179,-3.0183,0,0,0,0,0,0,0,0,0,0,0,0,0,-2.9672,-2.9676,-2.9898,-2.99,-2.9901,-3.0026,-3.0027,-3.0029,-3.0045,-3.0043,-3.0042,-3.004,-3.0173,-3.0178,-3.0184,0,0,0,0,0,0,0,0,0,0,0,0,0,-2.9782,-2.9677,-2.9898,-2.9924,-2.9927,-3.0025,-3.0028,-3.003,-3.0045,-3.0043,-3.0041,-3.004,-3.0171,-3.0178,-3.0185,-3.0266,0,0,-3.0206,-3.0209,0,0,0,0,0,0,0,0,-2.9776,-2.979,-2.9918,-2.9922,-2.9926,-3.0017,-2.9997,-3.0109,-3.0046,-3.0,-3.0041,-3.0039,-3.0124,-3.0134,-3.0163,-3.0272,-3.0278,-3.0207,-3.0211,-3.0214,-3.0216,0,0,0,0,0,0,0,-2.9768,-2.9785,-2.9949,-2.992,-2.9925,-2.9931,-2.9944,-3.0018,-3.0071,-3.0004,-3.0006,-3.0021,-3.0125,-3.0156,-3.0166,-3.028,-3.0207,-3.0213,-3.0217,-3.022,-3.0465,-3.0467,0,0,0,0,0,0,-2.9755,-2.9779,-2.9945,-2.9952,-2.9845,-2.9936,-2.9952,-2.999,-3.007,-3.0081,-3.0022,-3.0021,-3.0145,-3.0158,-3.0171,-3.0271,-3.0214,-3.0221,-3.0225,-3.0463,-3.0466,-3.0468,0,0,0,0,0,0,-2.975,-2.977,-2.9939,-2.9866,-2.9888,-2.9942,-2.9985,-2.9994,-3.0024,-3.0084,-3.0094,-3.0043,-3.0144,-3.0161,-3.0242,-3.0276,-3.0224,-3.023,-3.046,-3.0464,-3.0467,-3.0473,0,0,0,0,0,0,-2.9744,-2.9768,-2.9798,-2.9867,-2.9892,-3.0007,-2.9988,-2.9997,-3.0036,-3.0035,-3.0106,-3.0116,-3.0143,-3.0232,-3.0249,-3.0285,-3.0236,-3.0457,-3.0462,-3.0466,-3.047,-3.0476,-3.0482,0,0,0,0,0,-2.9736,-2.9795,-2.9799,-2.9819,-2.993,-3.0009,-3.0024,-3.0054,-3.0038,-3.007,-3.0109,-3.0113,-3.0271,-3.024,-3.026,-3.0298,-3.0455,-3.0461,-3.0466,-3.0467,-3.0475,-3.0482,0,0,0,0,0,0,-2.9728,-2.9804,-2.981,-2.9892,-2.9944,-3.0012,-3.0051,-3.0061,-3.0118,-3.0115,-3.0152,-3.0168,-3.0248,-3.0282,-3.0247,-3.0383,-3.0362,-3.0371,-3.0356,-3.0364,-3.037,-3.0359,-3.0242,0,0,0,0,0,-2.9736,-2.9793,-2.9857,-2.9924,-2.9949,-2.9996,-3.0032,-3.0051,-3.0106,-3.0128,-3.0173,-3.0228,-3.029,-3.033,-3.039,-3.0477,-3.0493,-3.0514,-3.0519,-3.0524,-3.053,-3.058,-3.059,-3.0485,-3.0485,-3.0485,0,0,-2.9753,-2.9802,-2.9835,-2.9923,-2.9966,-3.0025,-3.0014,-3.0077,-3.0122,-3.0138,-3.0217,-3.0253,-3.0317,-3.0402,-3.0442,-3.0433,-3.0564,-3.053,-3.0533,-3.0538,-3.0587,-3.0597,-3.0605,-3.0488,-3.0488,-3.0487,0,0,-2.9813,-2.9856,-2.9916,-2.996,-3.0024,-3.0056,-3.0071,-3.0138,-3.0162,-3.0243,-3.0257,-3.0312,-3.0418,-3.0463,-3.0499,-3.0582,-3.0589,-3.0601,-3.063,-3.0678,-3.0687,-3.0694,-3.0723,-3.0733,-3.0609,-3.0609,-3.0609,0,-2.9825,-2.9914,-2.9946,-3.0009,-3.0048,-3.0067,-3.013,-3.0171,-3.0252,-3.028,-3.0269,-3.0404,-3.0448,-3.0544,-3.0565,-3.0594,-3.0613,-3.0591,-3.0683,-3.0691,-3.0698,-3.0726,-3.0737,-3.0609,-3.0609,-3.0609,-3.0609,0,-2.9926,-2.9988,-3.003,-3.0107,-3.0152,-3.0214,-3.0258,-3.03,-3.0317,-3.035,-3.0434,-3.0489,-3.056,-3.0586,-3.0603,-3.0686,-3.0678,-3.0675,-3.0654,-3.0708,-3.0735,-3.0746,-3.0611,-3.061,-3.061,-3.061,0,0,-2.998,-3.0078,-3.0092,-3.0129,-3.0204,-3.0253,-3.0318,-3.0389,-3.0424,-3.0481,-3.0537,-3.0628,-3.0627,-3.0668,-3.0692,-3.0734,-3.0797,-3.0726,-3.0729,-3.0736,-3.0892,-3.0892,-3.0903,-3.0803,-3.0806,-3.0807,-3.0886,0,-3.0047,-3.0161,-3.0195,-3.0291,-3.035,-3.0371,-3.0429,-3.0482,-3.0516,-3.0572,-3.0611,-3.0675,-3.0668,-3.0694,-3.0737,-3.0779,-3.0828,-3.0775,-3.0856,-3.0858,-3.0835,-3.0918,-3.0917,-3.0988,-3.0897,-3.0899,-3.09,0,-3.014,-3.0198,-3.03,-3.037,-3.0396,-3.0446,-3.0515,-3.0568,-3.0631,-3.0653,-3.0702,-3.0722,-3.0793,-3.0772,-3.0871,-3.0834,-3.087,-3.0897,-3.09,-3.0906,-3.088,-3.0924,-3.1012,-3.1021,-3.0917,-3.0916,-3.0915,0,-3.0167,-3.0272,-3.0347,-3.0378,-3.0462,-3.0497,-3.0534,-3.0595,-3.0636,-3.0697,-3.0725,-3.0794,-3.0831,-3.0886,-3.0925,-3.0906,-3.1021,-3.1002,-3.1042,-3.1041,-3.1062,-3.1059,-3.1154,-3.1089,-3.1089,-3.1089,-3.1089,0,-3.0237,-3.0298,-3.0361,-3.0406,-3.0477,-3.0518,-3.0587,-3.0625,-3.068,-3.0735,-3.076,-3.0811,-3.0862,-3.0921,-3.0953,-3.103,-3.1048,-3.1068,-3.1075,-3.1064,-3.1061,-3.1086,-3.1081,-3.1092,-3.1091,-3.1091,-3.109,0,-3.0277,-3.0322,-3.0405,-3.0478,-3.0499,-3.0547,-3.0611,-3.0658,-3.0695,-3.0765,-3.0784,-3.0843,-3.0914,-3.096,-3.1051,-3.1073,-3.1157,-3.1164,-3.1135,-3.1138,-3.1174,-3.1169,-3.1285,-3.1302,-3.1228,-3.1229,-3.123,0,-3.0317,-3.0365,-3.0444,-3.0483,-3.052,-3.0581,-3.0624,-3.0668,-3.0711,-3.0788,-3.0826,-3.0899,-3.0959,-3.1072,-3.1124,-3.1195,-3.1202,-3.1239,-3.1213,-3.1201,-3.1201,-3.1196,-3.1202,-3.1241,-3.1242,-3.1242,-3.1243,0,-3.0383,-3.0404,-3.0463,-3.0532,-3.0582,-3.0638,-3.0695,-3.0726,-3.0779,-3.0828,-3.0901,-3.0948,-3.1041,-3.1114,-3.119,-3.123,-3.1246,-3.1251,-3.1264,-3.1251,-3.1232,-3.1241,-3.1143,-3.1247,-3.1247,-3.1246,-3.1246,-3.1246,-3.0423,-3.0467,-3.053,-3.0597,-3.0645,-3.0698,-3.0745,-3.079,-3.0851,-3.0929,-3.0953,-3.1029,-3.1095,-3.1198,-3.124,-3.1302,-3.1297,-3.1316,-3.132,-3.1323,-3.1323,-3.1225,-3.1316,-3.1316,-3.1316,-3.1316,-3.1316,0,-3.0489,-3.0532,-3.0593,-3.0671,-3.0725,-3.0736,-3.0801,-3.0844,-3.0911,-3.097,-3.103,-3.1115,-3.1186,-3.1245,-3.132,-3.1358,-3.1367,-3.1376,-3.1372,-3.1381,-3.1323,-3.1304,-3.1367,-3.1367,-3.1367,-3.1367,-3.1367,-3.1367,-3.0529,-3.0604,-3.0633,-3.0733,-3.0777,-3.085,-3.0886,-3.0936,-3.0984,-3.1077,-3.1137,-3.1175,-3.1235,-3.1315,-3.1382,-3.1398,-3.1423,-3.143,-3.1447,-3.1391,-3.1385,-3.1379,-3.1361,-3.1436,-3.1436,-3.15,-3.15,-3.1501]},{"header":{"parameterUnit":"m.s-1","parameterCategory":1,"la1":30.2991,"la2":30.254,"lo1":-89.0895,"lo2":-89.0444,"dy":0.0017,"dx":0.0017,"nx":28,"ny":28,"refTime":"2024-03-06T03:00:00:Z","depth":0,"parameterNumber":3,"parameterNumberName":"V-component_of_WINDS"},"data":[0,0,0,0,0,0,0,0,0,0,0,0,0,0,0,0,0,0,0,0,0,0,0,0,0,0,0,0,0,0,0,0,0,0,0,0,0,0,0,0,0,0,0,0,0,0,0,0,0,0,0,0,0,0,0,0,0,0,3.0075,3.0075,0,3.0052,3.0052,3.0051,3.0055,3.0055,3.0055,3.0056,3.0025,3.0024,3.0022,0,0,0,0,0,0,0,0,0,0,0,0,0,3.0118,3.0117,3.0075,3.0075,3.0075,3.0052,3.0052,3.0051,3.0054,3.0055,3.0055,3.0056,3.0025,3.0024,3.0022,0,0,0,0,0,0,0,0,0,0,0,0,0,3.0097,3.0117,3.0076,3.0074,3.0074,3.0052,3.0052,3.0051,3.0054,3.0055,3.0056,3.0056,3.0026,3.0024,3.0022,2.9999,0,0,3.0017,3.0016,0,0,0,0,0,0,0,0,3.0098,3.0096,3.0074,3.0074,3.0074,3.0057,3.0055,3.0033,3.0054,3.0061,3.0056,3.0056,3.0035,3.0032,3.0026,2.9997,2.9996,3.0016,3.0015,3.0015,3.0014,0,0,0,0,0,0,0,3.01,3.0097,3.0066,3.0074,3.0074,3.0073,3.007,3.0051,3.0045,3.0061,3.0061,3.0059,3.0034,3.0028,3.0025,2.9996,3.0017,3.0015,3.0014,3.0013,2.9947,2.9946,0,0,0,0,0,0,3.0103,3.0098,3.0067,3.0065,3.0088,3.0071,3.0069,3.0062,3.0045,3.0043,3.0058,3.0059,3.0031,3.0027,3.0024,2.9996,3.0015,3.0013,3.0012,2.9947,2.9946,2.9946,0,0,0,0,0,0,3.0103,3.01,3.0068,3.0082,3.0078,3.007,3.0062,3.0061,3.0054,3.0043,3.0041,3.0053,3.0031,3.0027,3.0006,2.9995,3.0012,3.001,2.9948,2.9947,2.9946,2.9939,0,0,0,0,0,0,3.0105,3.01,3.0092,3.0082,3.0077,3.0051,3.0061,3.006,3.0052,3.0053,3.0038,3.0036,3.0031,3.0008,3.0004,2.9993,3.0009,2.9949,2.9948,2.9946,2.994,2.9937,2.9936,0,0,0,0,0,3.0106,3.009,3.0092,3.0088,3.0067,3.005,3.0047,3.0045,3.0051,3.0042,3.0035,3.0036,2.9997,3.0006,3.0001,2.9989,2.995,2.9948,2.9947,2.9941,2.9938,2.9936,0,0,0,0,0,0,3.0096,3.0088,3.009,3.007,3.0061,3.0051,3.004,3.0042,3.0029,3.003,3.0025,3.0021,3.0,2.9993,3.0003,2.9966,2.9974,2.9971,2.9971,2.9969,2.9966,2.9968,3.0008,0,0,0,0,0,3.0093,3.0081,3.0074,3.0057,3.0052,3.0047,3.004,3.0039,3.0028,3.0024,3.0015,3.0003,2.9988,2.9978,2.9964,2.9939,2.9935,2.9929,2.9927,2.9925,2.9922,2.9908,2.9905,2.9941,2.9941,2.9941,0,0,3.0083,3.0077,3.007,3.0055,3.0048,3.0035,3.0044,3.0029,3.0019,3.0021,3.0001,2.9994,2.998,2.9958,2.9947,2.9951,2.9912,2.9923,2.9922,2.992,2.9906,2.9903,2.99,2.994,2.994,2.994,0,0,3.0059,3.0054,3.0039,3.0033,3.0023,3.002,3.0017,3.0006,3.0003,2.9983,2.9984,2.9971,2.9946,2.9936,2.9928,2.9903,2.9903,2.9898,2.9886,2.9873,2.987,2.9867,2.9857,2.9854,2.9896,2.9896,2.9896,0,3.0048,3.003,3.0031,3.0017,3.001,3.0014,2.9998,2.9991,2.9976,2.997,2.9975,2.9944,2.9935,2.991,2.9905,2.9898,2.9893,2.9899,2.9871,2.9868,2.9866,2.9856,2.9852,2.9895,2.9895,2.9895,2.9895,0,3.0016,3.0004,2.9993,2.9981,2.9973,2.9958,2.9955,2.9947,2.9947,2.9943,2.9923,2.9913,2.9897,2.9891,2.989,2.9866,2.9868,2.9872,2.988,2.9862,2.9853,2.9849,2.9894,2.9895,2.9895,2.9895,0,0,2.9983,2.9974,2.997,2.9965,2.9955,2.9945,2.993,2.9917,2.9909,2.9899,2.9885,2.9865,2.9869,2.986,2.9858,2.9847,2.9826,2.9852,2.9851,2.9846,2.9798,2.9795,2.979,2.9827,2.9827,2.9826,2.9799,0,2.9957,2.9933,2.9934,2.9911,2.9899,2.9904,2.9891,2.9883,2.9879,2.9867,2.9862,2.9848,2.9855,2.9849,2.9838,2.9831,2.9816,2.9833,2.9812,2.9812,2.9814,2.9786,2.9781,2.9756,2.9796,2.9795,2.9795,0,2.9924,2.9915,2.9891,2.9885,2.988,2.9868,2.9856,2.9846,2.9836,2.9834,2.9826,2.9826,2.9809,2.9819,2.9796,2.9807,2.9799,2.9795,2.9793,2.979,2.9801,2.978,2.9748,2.9744,2.9789,2.979,2.979,0,2.9901,2.9883,2.9867,2.9863,2.9854,2.9846,2.9842,2.9834,2.9826,2.9815,2.981,2.9797,2.9789,2.9778,2.9774,2.9782,2.975,2.976,2.9747,2.9747,2.9738,2.9738,2.9703,2.9735,2.9735,2.9735,2.9736,0,2.9871,2.9856,2.9857,2.9846,2.9829,2.9831,2.9813,2.981,2.9802,2.979,2.9793,2.9781,2.9778,2.9765,2.9762,2.9743,2.9739,2.9736,2.9735,2.9735,2.9735,2.9728,2.9728,2.9734,2.9735,2.9735,2.9735,0,2.9841,2.9842,2.9824,2.9819,2.9817,2.9805,2.9799,2.9789,2.9787,2.9771,2.9767,2.9763,2.9748,2.9744,2.9726,2.9724,2.97,2.9702,2.9704,2.9703,2.969,2.969,2.9647,2.9641,2.9679,2.9679,2.9678,0,2.9821,2.981,2.9805,2.9798,2.9794,2.9783,2.9776,2.9777,2.9769,2.9759,2.9749,2.9735,2.9724,2.97,2.9694,2.968,2.968,2.9666,2.9677,2.9678,2.9678,2.9678,2.9676,2.9663,2.9662,2.9662,2.9662,0,2.9786,2.9787,2.9778,2.9769,2.9761,2.9753,2.9746,2.974,2.974,2.973,2.9717,2.9708,2.9691,2.9677,2.9663,2.9657,2.9658,2.9659,2.9654,2.9653,2.9654,2.9652,2.9696,2.9659,2.9659,2.9659,2.966,2.966,2.9759,2.975,2.9745,2.9734,2.973,2.9723,2.9713,2.9711,2.97,2.9688,2.9689,2.9674,2.9665,2.9647,2.9641,2.9628,2.9632,2.9626,2.9624,2.9622,2.962,2.9659,2.9625,2.9625,2.9625,2.9625,2.9626,0,2.9723,2.972,2.9711,2.9702,2.9694,2.97,2.9692,2.9684,2.9671,2.9664,2.9654,2.9639,2.9625,2.9619,2.9606,2.9596,2.9597,2.9593,2.9592,2.9591,2.9618,2.9623,2.9593,2.9593,2.9593,2.9593,2.9593,2.9593,2.9702,2.9687,2.9687,2.9669,2.9666,2.9653,2.9648,2.9642,2.9637,2.962,2.961,2.9607,2.96,2.9586,2.9574,2.9572,2.9566,2.9562,2.956,2.9585,2.9589,2.9592,2.9596,2.9561,2.9561,2.9533,2.9533,2.9533]}]]